User: anonymous   Login
Location: ???????
(55.9142°N, 37.8256°E)
Time: 13:11:28
(UTC+00:00)
Language:

Cosmos 2237 Rocket - Orbit

View from above orbital plane
View from above orbital plane
View from above satellite
View from above satellite

Ground track
Ground track

The orbit data is extracted from the following two-line orbital elements,

1 22566U 93016B   24171.92354462 -.00000258  00000-0 -10828-3 0  9999
2 22566  71.0080  93.5271 0011348 210.1884 149.8587 14.15138334613350
Epoch (UTC): 19 June 2024 22:09:54
Eccentricity: 0.0011348
inclination: 71.0080°
perigee height: 833 km
apogee height: 850 km
right ascension of ascending node: 93.5271°
argument of perigee: 210.1884°
revolutions per day: 14.15138334
mean anomaly at epoch: 149.8587°
orbit number at epoch: 61335

The dashed part of the orbit path shows where the satellite is in the earth's shadow,  

DLR